Location: Unspecified
(52.4292°N, 19.3359°E)
Time: 23:30:12
(UTC+02:00)

A-11 Canister half - Pass Details

Date: 19 May 2024
Orbit: 1524 x 1683 km, 47.3° (Epoch: 19 June)

Event Time Altitude Azimuth Distance (km) Brightness Sun altitude
Rises 00:12:34 0° 242° (WSW) 4,713 11.3 -17.5°
Reaches altitude 10° 00:15:38 10° 238° (WSW) 3,748 10.8 -17.6°
Maximum altitude 00:24:52 58° 163° (SSE) 1,814 9.0 -17.7°
Drops below altitude 10° 00:34:27 10° 88° (E) 3,877 11.1 -17.7°
Sets 00:37:40 0° 85° (E) 4,884 11.7 -17.8°
